Vorticity
6 6 7 8 10 11 11 11 14 21 27 26 23 20 18 15 13 11 10 10 10 10 9 9 10 11 14 15 17 18 19 22 21 18 17 16 15 12 9 6 6 8 12 10 8 12 26 33 24 7 -6 -4 6 14 12 4 2 6 13 17 18 17 15 14 14 15 15 11 4 -1 -0 8 17 25 32 32 21 -1 -32 -42 -22 6 20 13 13 15
4 5 6 7 10 12 13 11 11 14 22 25 25 24 23 21 19 16 13 12 11 11 11 10 10 10 12 14 17 18 20 25 23 20 18 17 16 14 11 7 6 8 12 11 8 8 13 35 34 19 -2 -3 3 9 8 -2 -6 -3 6 13 16 17 16 14 15 16 18 17 11 4 -2 3 11 20 27 30 24 7 -20 -43 -32 -7 11 6 7 11
3 3 4 6 9 11 14 12 11 11 15 21 24 24 24 24 24 22 18 16 14 13 12 11 11 11 11 13 15 18 20 24 24 23 20 19 18 17 14 10 7 7 11 11 9 7 5 27 35 29 12 4 6 11 13 2 -4 -4 0 7 11 14 15 14 14 16 19 21 19 13 4 2 7 15 24 28 27 16 -6 -32 -30 -14 -1 -3 -0 7
2 2 2 5 6 7 9 12 12 12 14 18 21 22 21 24 24 24 22 20 18 17 14 13 12 12 11 12 13 15 18 22 25 25 23 21 20 18 16 12 9 8 9 10 9 7 5 14 24 29 25 14 12 15 19 11 7 6 9 9 10 10 11 11 13 15 19 23 24 21 14 7 7 12 20 26 28 24 10 -15 -21 -16 -9 -10 -5 5
1 0 -0 2 3 4 5 8 11 13 14 15 16 18 19 22 23 24 25 23 22 20 18 15 14 13 12 13 13 14 16 20 24 27 27 24 22 20 18 15 12 9 9 10 9 8 7 7 11 18 26 19 16 16 19 13 11 12 16 15 12 10 9 9 10 12 15 20 23 24 21 14 11 11 17 22 27 27 23 1 -10 -13 -12 -14 -8 3
2 1 -1 -1 1 3 7 7 8 10 11 10 11 13 16 20 23 25 23 24 23 22 20 18 16 14 14 14 14 14 14 17 21 26 29 28 25 22 19 16 14 11 9 9 8 7 6 5 5 10 20 21 18 15 17 10 9 11 14 16 15 12 10 8 8 9 11 14 18 21 22 18 14 13 16 21 25 27 27 15 0 -11 -16 -16 -11 -1
1 1 1 -0 1 3 6 7 6 6 6 9 10 12 12 15 17 17 18 20 22 23 22 20 17 16 15 15 15 14 14 15 18 23 28 30 29 26 21 18 15 13 10 8 7 6 4 4 5 9 18 23 21 15 11 7 7 7 7 14 16 14 12 10 8 8 8 11 14 17 19 17 15 14 16 20 24 26 27 23 9 -7 -19 -19 -14 -5
-0 0 3 3 4 5 6 6 5 4 3 6 10 13 12 11 10 11 15 17 20 22 24 22 20 18 17 16 15 15 14 14 16 19 24 29 31 30 26 21 17 14 11 8 7 6 5 5 6 9 14 19 21 19 13 9 6 3 1 9 14 16 14 12 11 9 9 10 12 14 17 16 13 12 13 19 23 26 28 26 16 -1 -19 -20 -17 -9
-0 -1 2 5 6 6 6 7 6 4 3 3 6 9 11 11 12 14 18 18 19 20 23 23 21 19 18 17 16 15 14 14 15 17 20 26 30 33 31 27 22 17 12 10 8 7 7 8 8 9 8 11 15 19 20 17 11 5 -2 3 9 14 14 14 13 12 11 11 12 15 17 16 13 11 11 16 22 27 29 28 21 7 -16 -20 -18 -12
3 2 1 5 7 8 6 5 4 4 5 4 5 8 11 14 19 23 24 22 21 20 21 22 22 21 19 18 17 16 14 15 15 16 17 21 26 31 34 32 28 23 18 14 12 11 10 10 9 7 6 6 8 12 17 18 16 11 4 4 6 10 12 14 14 14 14 13 14 16 18 17 14 11 10 14 20 26 30 30 26 14 -8 -17 -18 -12
4 5 4 4 7 10 11 6 5 6 9 9 10 12 13 16 21 26 28 26 23 20 19 19 20 21 21 20 19 17 15 14 15 15 16 18 21 25 30 33 33 30 26 22 18 16 13 11 9 7 6 5 5 6 9 12 14 13 9 7 7 8 10 12 13 14 14 14 16 17 20 19 16 12 9 12 17 24 29 31 29 20 2 -14 -18 -12
3 3 6 7 9 11 12 12 13 14 15 16 17 19 18 17 19 21 24 25 23 20 19 18 19 19 21 21 20 18 16 15 14 14 15 16 17 20 24 29 32 33 32 29 26 23 19 15 12 9 6 5 5 5 5 7 9 10 9 8 7 7 8 9 9 10 11 12 14 17 20 21 18 14 11 11 15 21 27 30 31 26 12 -10 -19 -15
4 5 8 12 15 17 19 20 22 23 23 23 22 20 18 16 16 17 19 20 19 19 20 20 19 19 20 21 21 19 17 15 14 13 14 14 15 17 20 23 27 29 31 32 31 29 26 23 18 14 10 7 6 4 4 5 6 7 8 8 7 7 7 7 7 7 7 8 10 13 17 20 19 16 12 12 14 18 24 29 32 30 20 -5 -19 -21
5 9 15 21 25 28 30 29 28 26 23 19 16 13 13 14 16 17 17 16 15 15 18 19 20 20 21 21 20 19 17 15 13 12 12 12 13 15 18 20 22 25 27 28 29 30 30 29 26 22 16 11 8 6 5 5 6 7 7 8 8 8 8 7 7 7 6 7 7 9 12 16 17 17 14 13 14 16 21 27 32 33 27 -1 -18 -24
13 20 26 29 30 29 28 25 22 18 15 12 11 11 12 13 14 15 15 15 15 16 15 17 19 20 20 20 20 19 17 15 13 11 11 10 11 12 16 18 20 22 23 24 25 26 27 30 30 28 23 17 13 10 8 7 8 8 8 9 9 9 9 9 9 9 9 9 8 8 9 12 14 15 14 13 14 16 19 25 30 34 32 6 -13 -24
26 29 28 25 21 18 15 14 12 12 12 12 12 12 13 14 15 14 13 14 16 16 14 17 18 19 18 18 20 20 18 15 13 11 11 10 10 11 14 17 19 21 21 21 22 22 23 26 28 29 27 23 18 14 12 11 10 10 10 10 10 10 10 10 11 11 11 12 12 11 10 11 12 13 13 13 14 15 18 23 28 33 36 15 -8 -25
25 23 19 16 14 12 11 11 11 12 13 14 14 14 14 16 17 16 15 15 15 14 13 15 17 20 22 18 18 19 18 17 15 12 11 12 11 11 13 16 18 20 21 21 20 20 21 23 25 26 26 24 21 18 16 14 14 13 13 13 13 12 11 11 11 12 12 13 14 14 14 13 12 11 11 12 12 14 17 21 26 32 37 23 1 -21
20 17 14 13 12 12 13 12 12 12 14 15 17 19 19 20 20 20 18 17 16 14 13 13 14 17 23 21 18 17 18 17 16 14 13 13 13 12 12 15 17 18 20 20 20 20 20 21 23 24 24 23 22 20 18 17 17 17 18 17 17 15 14 12 12 12 12 12 14 16 17 16 14 12 11 11 11 13 15 19 24 30 35 31 14 -9
16 15 14 13 13 14 15 13 13 13 15 18 22 25 26 25 24 22 20 18 16 15 15 14 14 15 19 20 19 17 18 17 16 15 14 15 14 13 12 14 16 18 19 18 19 20 20 21 21 22 23 22 21 21 20 19 19 20 21 21 21 20 18 15 13 12 12 12 13 15 18 18 16 14 12 11 11 12 13 17 21 26 32 36 26 6
15 16 16 15 15 15 14 14 15 17 20 24 26 26 25 24 22 19 17 16 15 15 15 16 16 17 19 20 18 17 18 17 15 14 15 15 15 15 13 14 15 17 17 17 18 20 21 21 21 21 21 21 21 21 20 20 21 22 23 23 23 23 21 19 16 14 13 12 13 15 17 19 18 16 13 12 11 12 12 14 18 23 29 36 33 20
15 16 18 19 18 17 17 19 21 23 25 25 24 22 20 19 16 14 13 14 15 16 18 19 18 18 19 20 19 18 21 19 17 16 17 16 17 17 14 14 15 16 16 16 17 19 21 21 21 21 21 21 21 21 21 21 22 22 23 24 24 24 23 22 19 17 15 13 13 14 17 19 19 18 15 13 12 12 12 13 15 19 25 33 37 30
16 16 19 19 20 20 20 23 25 27 26 23 20 16 13 12 11 11 13 15 17 19 21 21 21 21 22 20 18 17 18 17 17 19 20 18 18 18 16 15 15 15 15 16 17 19 20 20 20 21 21 21 21 21 21 21 21 22 22 23 23 24 24 23 21 19 17 15 14 14 16 19 20 19 16 14 12 12 12 12 14 16 22 30 36 35
16 17 18 19 20 21 22 23 25 25 22 16 12 9 8 8 11 14 19 21 23 23 22 22 22 21 18 18 16 15 13 14 16 18 17 19 19 19 17 16 15 14 14 15 17 19 20 19 19 20 20 21 21 21 21 20 20 20 20 21 22 22 23 23 22 21 19 17 15 15 16 18 20 20 18 15 13 12 12 12 12 14 19 27 34 37
16 18 19 20 21 21 21 22 22 20 16 10 6 3 4 7 10 13 14 15 15 16 18 18 18 17 16 16 15 14 12 14 16 17 13 16 17 18 18 16 15 15 15 15 17 18 19 18 18 19 20 20 20 20 20 20 19 19 19 20 20 21 21 22 22 21 20 18 17 16 16 19 20 21 20 17 14 12 12 12 12 12 16 24 32 37
19 20 21 21 21 21 21 20 20 19 17 14 11 9 7 10 12 12 10 9 9 11 12 14 16 17 16 16 16 14 12 15 16 16 15 17 17 17 18 16 16 16 16 15 16 17 18 17 18 18 18 19 19 19 19 19 19 19 19 19 20 20 20 21 21 21 20 19 18 17 17 19 21 22 22 18 15 13 12 11 11 11 14 21 30 36
20 21 22 22 22 22 22 21 22 24 26 27 26 25 26 26 24 21 17 14 11 11 12 14 13 12 12 16 16 15 13 15 15 15 15 18 18 17 16 17 16 15 16 16 16 16 16 16 17 17 17 17 18 19 19 19 18 18 18 19 19 20 20 20 20 20 19 19 18 18 17 18 21 23 23 20 17 14 12 11 11 11 12 18 27 35
20 21 22 22 23 23 22 20 20 20 22 24 25 25 24 24 24 23 22 19 17 15 14 14 13 13 14 15 14 13 15 16 16 15 16 18 18 17 13 17 17 15 15 15 15 15 15 15 16 16 17 17 18 18 18 18 18 17 18 18 19 19 20 20 20 19 19 18 18 17 17 18 20 22 24 22 19 16 13 11 10 10 11 16 25 33
20 21 21 22 23 23 22 19 17 16 17 18 19 18 17 17 17 18 19 20 17 14 13 12 13 13 14 13 13 14 16 14 14 15 18 17 16 14 13 17 16 15 15 15 15 15 14 14 15 16 16 17 18 17 17 16 16 17 17 18 18 19 19 19 19 19 18 18 17 17 17 17 19 21 24 24 21 17 14 11 10 9 11 15 23 32
20 21 21 22 22 21 19 16 14 13 14 16 17 17 16 15 14 14 16 16 14 12 13 12 11 12 12 13 14 15 15 11 12 15 18 16 13 12 14 16 16 15 15 15 15 15 14 13 14 15 16 17 17 16 16 16 16 16 17 18 19 19 20 20 20 19 18 17 17 16 16 16 18 20 24 25 23 19 15 12 10 9 10 14 21 29
21 21 22 22 21 20 18 15 12 10 11 15 18 19 18 16 14 13 14 14 13 13 12 11 11 11 11 14 16 15 12 10 12 15 17 14 13 13 15 15 15 15 16 16 16 15 14 13 13 14 15 16 16 15 15 15 15 16 16 17 18 19 20 20 20 19 19 18 17 16 15 15 17 19 22 25 24 22 17 13 11 10 11 13 18 25
21 21 21 21 20 19 17 14 11 9 9 13 17 19 20 19 17 15 13 12 12 12 12 11 10 10 11 14 16 15 11 11 13 16 16 14 13 14 15 14 14 15 15 16 16 16 15 14 14 13 14 15 15 15 15 15 15 15 16 17 18 18 19 19 20 19 19 18 17 16 15 15 16 18 21 24 24 23 19 15 12 12 12 12 15 22
21 21 21 19 18 17 16 15 12 10 9 10 14 18 21 22 21 19 16 13 12 11 11 12 11 11 11 13 14 14 12 12 14 16 16 14 14 14 14 13 14 15 15 14 15 15 16 16 16 15 14 14 14 14 15 15 15 16 16 17 17 17 18 19 19 19 19 18 17 16 15 15 16 17 20 22 24 23 20 16 14 14 13 12 13 18
21 20 20 18 17 16 16 14 13 11 9 9 11 15 19 23 24 23 21 18 15 13 12 13 14 13 13 13 14 15 15 13 14 15 15 14 14 14 14 13 13 14 15 15 14 14 13 15 17 17 16 14 14 14 15 15 15 15 16 16 17 17 18 18 18 18 18 18 17 16 15 15 16 17 19 21 23 23 21 18 16 15 14 12 12 14
20 19 18 18 17 17 16 15 13 12 11 10 10 13 17 22 25 26 25 23 21 19 16 16 17 18 18 17 18 19 18 15 14 14 14 13 13 13 14 13 13 14 15 15 15 15 13 13 14 16 17 16 15 14 15 15 15 16 16 16 16 17 18 19 19 18 18 18 17 16 15 15 15 16 18 21 22 22 21 19 18 17 15 13 11 13
19 17 16 17 17 17 17 16 15 13 12 11 12 13 15 19 23 26 26 25 24 22 20 19 19 20 21 20 20 20 20 16 15 14 13 12 12 13 13 13 14 15 15 15 16 16 15 13 13 13 15 16 16 15 14 14 15 16 16 15 16 17 18 19 19 19 19 18 17 16 16 15 15 16 18 20 22 22 21 20 19 17 15 13 11 12
19 17 16 16 17 18 19 19 17 15 14 14 14 14 14 15 19 22 25 25 24 23 23 22 22 21 21 22 21 21 21 17 15 14 12 11 12 12 12 13 14 15 14 15 15 16 16 14 13 12 12 14 15 16 15 14 15 15 15 15 15 16 18 19 19 19 20 19 18 17 16 16 15 16 17 19 21 22 21 20 19 18 16 13 12 12
20 18 16 16 16 18 20 21 21 19 17 16 16 16 14 14 16 19 22 22 22 22 22 22 22 22 21 21 21 20 19 17 15 14 12 12 12 13 13 14 15 15 14 14 15 16 16 15 14 13 12 12 13 15 18 17 16 15 14 15 16 17 17 18 19 19 20 19 18 18 17 16 16 15 16 18 20 21 21 19 18 17 15 13 13 12
21 20 18 16 15 16 19 22 23 22 20 18 18 17 16 15 16 19 21 21 20 19 19 20 21 21 20 20 20 20 20 18 16 14 13 13 13 14 15 15 15 14 14 13 14 15 15 15 15 14 14 13 12 13 16 18 17 15 15 15 16 16 17 19 20 20 19 19 18 17 18 17 16 15 14 17 19 21 21 20 18 16 14 12 12 12
22 22 21 18 15 15 16 20 23 24 22 20 18 17 16 17 18 19 19 18 17 16 16 18 19 20 19 19 18 19 19 18 16 15 14 14 14 14 14 15 14 14 14 14 14 14 14 13 13 14 16 15 14 13 14 14 14 14 17 17 16 16 16 19 20 20 20 19 19 18 18 18 16 15 14 17 20 22 23 22 20 18 15 13 12 12
21 23 23 20 17 14 14 18 21 23 23 21 19 17 15 16 16 16 15 15 15 15 15 16 17 18 18 16 16 16 17 17 16 15 14 14 13 13 13 13 13 12 13 14 14 14 13 12 11 12 13 14 15 15 15 13 13 14 17 18 17 17 17 19 20 20 20 19 20 21 20 19 17 15 15 16 19 22 23 22 20 18 16 14 14 14
20 22 24 22 19 16 13 15 18 21 24 24 22 19 15 14 13 12 10 10 11 14 18 19 19 18 16 14 13 12 13 14 14 14 14 14 14 13 13 13 12 12 12 13 13 14 14 13 13 12 12 13 13 14 14 14 15 16 16 15 16 17 19 19 19 20 20 19 19 20 21 20 18 16 15 15 17 19 21 21 20 18 15 13 13 14
18 21 23 24 23 19 16 14 15 18 23 27 27 25 20 17 14 11 9 8 10 13 15 18 21 23 21 15 11 10 10 11 12 13 14 14 14 14 14 14 14 13 11 12 12 12 13 14 13 13 13 14 14 13 13 13 14 15 14 13 15 17 19 18 19 20 20 20 19 19 19 21 21 19 17 17 17 18 19 20 21 21 19 15 13 12
16 18 21 24 24 22 20 17 16 17 22 28 31 31 28 24 19 14 9 8 8 10 12 13 17 21 21 14 8 4 3 5 7 9 10 11 12 13 14 14 14 14 13 13 12 12 12 13 13 13 13 12 12 13 12 13 14 14 13 14 16 18 19 19 19 19 19 19 20 19 18 18 20 21 18 19 19 20 21 22 21 20 19 17 15 14
15 17 19 22 24 24 23 21 18 17 18 22 26 28 29 28 25 21 16 13 13 15 16 14 13 13 12 10 9 7 5 3 2 3 4 6 8 10 12 13 13 14 14 14 14 13 12 13 15 15 14 13 12 11 11 12 13 15 14 15 15 16 16 18 19 20 20 19 19 18 17 17 17 18 17 17 19 22 24 23 21 19 17 16 14 14
14 15 17 20 23 25 25 23 20 17 15 14 15 18 21 24 25 24 21 18 14 12 13 13 12 9 7 7 7 7 7 6 5 3 1 2 4 5 8 9 11 12 13 14 14 14 13 13 14 15 13 15 14 12 11 12 13 14 15 16 15 15 15 17 19 20 20 20 19 18 18 17 18 18 17 16 18 22 25 24 23 21 20 17 15 14
13 14 16 18 21 23 24 25 23 20 16 12 10 11 15 20 23 24 23 19 13 9 8 7 4 2 4 6 6 4 4 4 5 7 8 6 4 3 2 5 7 10 11 11 12 13 15 14 12 10 10 13 14 13 12 12 13 14 15 16 16 16 16 17 18 19 19 20 19 18 18 18 19 20 19 16 17 19 23 24 25 24 23 19 16 15
12 13 15 17 19 21 23 25 24 22 20 16 13 11 13 18 23 27 30 24 16 9 7 4 -1 -4 -1 7 14 18 18 14 10 8 8 9 8 6 3 3 4 6 8 9 10 10 11 12 11 10 10 10 11 13 14 13 13 13 15 16 17 17 17 17 18 18 18 19 19 19 19 20 20 18 16 16 16 18 21 24 25 25 23 20 17 15
10 12 14 16 17 19 21 24 24 23 22 19 17 15 13 15 18 22 28 29 24 16 10 6 -2 -8 -10 3 18 29 34 31 26 21 16 14 13 12 9 7 6 6 6 8 9 9 9 9 8 9 13 9 9 12 14 15 15 15 15 16 17 17 18 18 18 18 18 18 18 18 19 22 21 18 16 17 17 18 20 25 27 26 23 20 17 16
7 10 12 14 16 18 20 21 23 24 23 22 20 18 16 14 13 15 17 20 20 17 13 7 1 -4 -4 7 17 23 25 26 27 27 27 26 24 21 18 14 11 9 8 8 8 8 8 9 8 8 11 10 10 10 11 14 15 16 16 16 17 17 18 18 18 18 18 18 18 18 17 18 17 16 16 19 20 20 18 24 27 27 24 21 19 16
6 7 10 13 15 17 19 20 21 22 24 24 23 20 18 14 12 10 11 14 14 12 8 4 1 1 5 12 14 13 9 10 13 17 22 26 29 29 27 23 18 14 11 8 7 6 6 6 6 8 9 11 13 13 9 12 14 16 17 17 17 17 18 19 19 18 17 17 17 17 17 16 16 16 18 20 21 20 16 20 25 28 26 23 20 18
5 5 7 10 13 16 18 19 20 21 22 23 23 22 19 15 11 9 9 11 11 8 5 2 2 4 8 10 10 9 7 8 9 11 14 18 24 29 30 27 23 18 13 10 9 8 8 9 8 8 7 10 12 14 13 11 12 14 17 18 18 17 18 18 19 19 17 16 16 16 17 16 18 20 21 20 20 19 16 19 25 30 29 25 22 19
Height
2856 2855 2854 2854 2853 2851 2850 2850 2849 2847 2846 2845 2845 2844 2843 2842 2842 2841 2840 2839 2838 2838 2837 2836 2836 2835 2835 2835 2835 2835 2835 2835 2834 2833 2833 2833 2833 2834 2834 2834 2834 2835 2836 2837 2838 2840 2841 2843 2844 2847 2850 2852 2854 2856 2858 2861 2863 2866 2869 2872 2875 2878 2881 2884 2888 2892 2896 2900 2904 2908 2912 2916 2920 2924 2929 2934 2939 2943 2948 2952 2955 2958 2961 2965 2969 2973
2854 2853 2852 2852 2850 2849 2848 2848 2847 2845 2843 2843 2842 2841 2840 2839 2838 2838 2837 2836 2835 2834 2834 2833 2833 2833 2832 2832 2833 2833 2833 2833 2833 2832 2831 2831 2832 2832 2832 2833 2833 2833 2834 2835 2837 2838 2840 2841 2843 2845 2848 2850 2852 2854 2856 2858 2861 2864 2868 2871 2873 2876 2878 2882 2885 2889 2893 2897 2901 2905 2909 2913 2917 2921 2926 2931 2935 2940 2944 2948 2952 2956 2959 2963 2968 2972
2852 2851 2850 2849 2848 2847 2845 2845 2844 2843 2841 2840 2839 2838 2837 2836 2835 2834 2834 2833 2832 2831 2831 2830 2830 2829 2829 2829 2830 2830 2830 2830 2830 2830 2830 2829 2829 2830 2830 2831 2831 2831 2832 2834 2835 2837 2838 2840 2842 2843 2846 2848 2850 2852 2854 2857 2860 2863 2867 2870 2873 2876 2878 2882 2885 2888 2892 2895 2899 2903 2907 2911 2915 2919 2923 2928 2932 2937 2941 2945 2949 2953 2958 2962 2967 2971
2850 2848 2847 2846 2845 2844 2843 2842 2840 2839 2838 2837 2836 2834 2834 2833 2832 2831 2830 2829 2829 2828 2828 2827 2827 2827 2827 2827 2827 2827 2827 2828 2828 2828 2828 2828 2828 2828 2828 2829 2829 2829 2830 2832 2833 2835 2837 2838 2839 2841 2844 2847 2848 2850 2852 2855 2858 2862 2865 2868 2871 2874 2878 2881 2884 2887 2890 2893 2897 2901 2905 2909 2913 2918 2922 2926 2930 2934 2938 2943 2947 2952 2956 2961 2966 2969
2848 2846 2844 2843 2842 2840 2839 2838 2837 2836 2834 2833 2832 2831 2830 2829 2828 2828 2827 2826 2826 2825 2825 2825 2824 2824 2824 2824 2824 2824 2825 2825 2825 2825 2826 2826 2826 2826 2827 2827 2828 2828 2828 2829 2831 2833 2835 2836 2837 2838 2841 2843 2845 2846 2848 2851 2855 2858 2862 2865 2868 2872 2875 2879 2882 2885 2888 2892 2895 2899 2903 2907 2911 2916 2920 2924 2928 2932 2936 2941 2945 2950 2955 2960 2964 2968
2845 2844 2843 2841 2839 2837 2836 2835 2834 2833 2831 2829 2828 2828 2827 2826 2825 2824 2824 2823 2823 2823 2822 2822 2822 2822 2821 2821 2821 2822 2822 2822 2823 2823 2823 2824 2824 2824 2825 2825 2826 2826 2826 2827 2829 2831 2833 2834 2834 2835 2836 2838 2840 2842 2844 2848 2851 2855 2858 2861 2864 2868 2872 2875 2878 2882 2885 2888 2892 2896 2900 2904 2909 2913 2918 2923 2926 2930 2934 2938 2943 2948 2954 2958 2963 2966
2843 2842 2841 2839 2837 2835 2833 2832 2831 2829 2828 2826 2825 2824 2823 2823 2822 2821 2821 2821 2820 2820 2819 2819 2819 2819 2819 2819 2818 2819 2819 2819 2820 2820 2821 2822 2822 2823 2823 2823 2824 2824 2825 2825 2826 2828 2830 2831 2832 2832 2833 2834 2837 2840 2843 2847 2850 2853 2857 2859 2862 2865 2868 2872 2875 2878 2882 2885 2889 2893 2897 2901 2906 2911 2916 2920 2924 2928 2931 2936 2941 2946 2952 2956 2960 2963
2840 2839 2838 2837 2835 2833 2831 2829 2828 2827 2826 2824 2822 2821 2820 2819 2819 2818 2818 2818 2818 2817 2817 2817 2817 2817 2816 2816 2816 2816 2816 2816 2817 2818 2818 2819 2820 2820 2821 2822 2822 2823 2823 2823 2824 2825 2826 2828 2829 2830 2832 2834 2838 2841 2844 2847 2850 2853 2855 2858 2860 2863 2866 2869 2872 2875 2878 2882 2886 2890 2894 2899 2903 2908 2913 2917 2921 2925 2929 2933 2939 2944 2949 2954 2957 2961
2839 2837 2835 2834 2833 2831 2828 2827 2826 2825 2824 2822 2820 2819 2818 2817 2816 2816 2816 2815 2815 2815 2814 2813 2813 2814 2814 2813 2813 2813 2813 2814 2814 2815 2816 2816 2817 2818 2819 2819 2820 2821 2821 2822 2822 2823 2823 2825 2827 2829 2833 2836 2839 2842 2844 2847 2849 2851 2853 2856 2858 2861 2864 2867 2869 2873 2876 2879 2883 2887 2892 2897 2901 2906 2911 2915 2918 2923 2927 2931 2937 2942 2947 2951 2955 2958
2837 2835 2833 2831 2830 2828 2826 2824 2822 2822 2821 2820 2818 2817 2816 2815 2814 2813 2813 2812 2813 2812 2812 2811 2811 2811 2811 2811 2811 2811 2811 2811 2812 2812 2813 2814 2814 2815 2816 2817 2818 2818 2819 2820 2820 2821 2822 2824 2827 2829 2832 2835 2838 2840 2843 2845 2847 2849 2852 2854 2857 2859 2862 2865 2868 2871 2874 2878 2881 2886 2890 2895 2899 2904 2908 2912 2916 2920 2924 2929 2934 2939 2945 2949 2953 2957
2834 2832 2830 2828 2826 2825 2824 2822 2820 2819 2819 2818 2817 2815 2814 2813 2812 2810 2809 2809 2809 2810 2809 2808 2808 2808 2808 2808 2808 2808 2808 2808 2809 2810 2810 2811 2812 2813 2814 2815 2815 2816 2817 2818 2819 2820 2822 2823 2826 2828 2831 2833 2835 2838 2840 2843 2846 2848 2850 2853 2855 2858 2860 2863 2866 2869 2873 2876 2880 2884 2888 2893 2897 2901 2905 2909 2913 2917 2922 2926 2932 2937 2943 2948 2952 2955
2833 2830 2828 2826 2824 2823 2822 2820 2819 2818 2817 2816 2814 2813 2812 2811 2810 2808 2807 2806 2806 2807 2807 2806 2806 2806 2806 2806 2806 2806 2806 2806 2806 2807 2808 2808 2809 2810 2811 2812 2813 2814 2815 2816 2817 2819 2820 2822 2824 2826 2828 2830 2833 2835 2838 2841 2843 2846 2848 2851 2854 2856 2859 2861 2864 2867 2871 2874 2878 2882 2886 2890 2894 2898 2902 2906 2910 2914 2919 2923 2929 2934 2940 2945 2949 2953
2832 2829 2827 2825 2823 2822 2821 2819 2818 2817 2816 2814 2813 2811 2809 2808 2808 2806 2805 2804 2804 2804 2803 2803 2803 2803 2804 2803 2803 2803 2803 2803 2804 2805 2805 2806 2807 2807 2808 2809 2810 2811 2812 2813 2815 2817 2818 2820 2821 2823 2825 2828 2830 2833 2835 2838 2840 2843 2846 2848 2851 2854 2857 2859 2862 2865 2869 2872 2876 2880 2883 2888 2892 2895 2899 2903 2908 2912 2916 2920 2925 2931 2937 2942 2946 2950
2831 2829 2827 2825 2823 2821 2820 2818 2817 2815 2813 2812 2811 2809 2807 2806 2805 2804 2803 2802 2801 2801 2801 2800 2800 2801 2802 2802 2801 2801 2801 2801 2802 2802 2803 2803 2804 2805 2805 2806 2807 2808 2809 2811 2812 2814 2815 2817 2818 2821 2823 2825 2828 2830 2832 2835 2837 2840 2843 2846 2848 2851 2854 2857 2860 2863 2866 2870 2873 2877 2881 2885 2889 2893 2897 2901 2904 2908 2913 2917 2922 2928 2933 2938 2943 2946
2831 2828 2825 2823 2820 2819 2818 2816 2814 2813 2811 2809 2808 2807 2805 2804 2803 2802 2801 2799 2799 2799 2798 2798 2798 2799 2799 2799 2799 2799 2799 2799 2799 2800 2801 2801 2802 2803 2803 2803 2804 2806 2807 2808 2809 2811 2813 2814 2816 2818 2820 2823 2825 2827 2830 2832 2834 2837 2840 2843 2845 2848 2851 2854 2857 2860 2863 2867 2871 2874 2878 2882 2886 2890 2894 2898 2902 2906 2910 2914 2919 2924 2929 2934 2939 2943
2828 2825 2823 2820 2818 2816 2815 2813 2812 2810 2808 2807 2806 2804 2803 2801 2800 2799 2799 2798 2797 2796 2796 2796 2796 2796 2797 2798 2798 2797 2797 2797 2797 2798 2798 2799 2800 2800 2800 2801 2802 2803 2804 2805 2807 2808 2810 2811 2813 2815 2817 2820 2822 2824 2827 2829 2832 2834 2837 2839 2842 2845 2848 2851 2854 2857 2860 2864 2868 2872 2875 2879 2883 2887 2891 2894 2898 2903 2907 2911 2916 2921 2926 2931 2935 2940
2825 2823 2820 2818 2815 2813 2812 2811 2809 2808 2806 2804 2803 2802 2800 2799 2798 2798 2797 2796 2795 2794 2794 2793 2793 2794 2795 2796 2796 2796 2795 2795 2795 2796 2796 2797 2798 2798 2798 2798 2799 2800 2802 2803 2804 2806 2807 2808 2810 2812 2814 2817 2819 2821 2823 2826 2828 2831 2833 2836 2839 2842 2845 2848 2850 2853 2857 2861 2864 2868 2872 2876 2880 2884 2888 2891 2895 2899 2903 2908 2913 2918 2923 2928 2932 2936
2823 2820 2818 2815 2813 2811 2809 2808 2807 2805 2803 2802 2801 2799 2798 2797 2796 2796 2795 2794 2793 2792 2792 2792 2792 2792 2793 2793 2794 2794 2793 2793 2793 2793 2794 2795 2796 2796 2796 2796 2797 2798 2799 2801 2802 2803 2804 2806 2807 2809 2811 2814 2816 2818 2820 2823 2825 2828 2830 2833 2836 2838 2841 2844 2847 2850 2853 2857 2860 2864 2868 2873 2877 2881 2884 2888 2892 2896 2900 2904 2909 2914 2919 2924 2929 2933
2820 2818 2816 2813 2811 2808 2807 2805 2803 2802 2801 2799 2798 2797 2795 2794 2794 2793 2793 2792 2791 2790 2790 2790 2790 2790 2791 2791 2792 2792 2792 2791 2791 2791 2792 2793 2793 2794 2794 2794 2794 2796 2797 2798 2800 2801 2802 2803 2805 2807 2808 2811 2813 2815 2818 2820 2822 2825 2827 2830 2833 2835 2838 2841 2844 2847 2850 2853 2857 2861 2865 2869 2873 2877 2881 2885 2889 2893 2897 2901 2906 2911 2916 2921 2926 2930
2818 2815 2814 2812 2809 2806 2804 2803 2801 2800 2799 2797 2796 2794 2793 2792 2792 2791 2790 2789 2789 2788 2788 2788 2788 2788 2789 2789 2789 2790 2790 2789 2789 2789 2790 2790 2792 2792 2792 2792 2792 2793 2795 2796 2798 2799 2799 2801 2803 2804 2806 2808 2811 2813 2815 2817 2820 2822 2824 2827 2830 2832 2835 2838 2841 2844 2847 2851 2854 2858 2861 2865 2869 2873 2878 2882 2886 2889 2894 2898 2903 2908 2913 2918 2923 2927
2815 2813 2811 2809 2807 2804 2802 2800 2799 2798 2797 2795 2794 2792 2791 2790 2789 2788 2788 2787 2787 2786 2786 2786 2786 2787 2787 2787 2787 2788 2788 2787 2787 2787 2788 2788 2789 2790 2791 2790 2790 2792 2793 2794 2796 2797 2797 2798 2800 2802 2804 2806 2808 2810 2813 2815 2817 2820 2822 2824 2827 2830 2833 2835 2838 2842 2845 2848 2851 2855 2858 2862 2866 2870 2874 2878 2883 2887 2891 2895 2900 2905 2910 2914 2919 2924
2813 2811 2808 2807 2805 2803 2800 2798 2797 2796 2795 2794 2792 2790 2789 2788 2787 2786 2785 2785 2785 2784 2784 2784 2785 2785 2785 2785 2785 2786 2786 2785 2785 2785 2786 2786 2788 2789 2789 2788 2789 2790 2791 2793 2794 2794 2795 2797 2798 2800 2802 2804 2806 2808 2811 2813 2815 2818 2820 2823 2825 2828 2830 2833 2836 2839 2843 2846 2849 2853 2856 2860 2864 2868 2872 2876 2880 2884 2888 2892 2897 2902 2907 2911 2916 2921
2811 2808 2806 2804 2803 2801 2798 2797 2795 2794 2793 2792 2790 2788 2787 2786 2785 2784 2783 2783 2783 2783 2783 2783 2783 2783 2783 2783 2784 2784 2784 2784 2784 2783 2784 2784 2786 2787 2787 2787 2787 2788 2790 2791 2792 2792 2793 2795 2796 2798 2800 2802 2804 2806 2808 2811 2813 2815 2818 2820 2823 2825 2828 2831 2834 2837 2840 2843 2847 2851 2854 2858 2861 2865 2869 2873 2877 2881 2885 2890 2894 2899 2904 2908 2913 2918
2810 2808 2805 2803 2801 2799 2797 2795 2793 2792 2791 2790 2788 2787 2786 2785 2783 2782 2782 2782 2782 2781 2781 2781 2782 2782 2782 2782 2782 2782 2783 2783 2783 2782 2782 2783 2784 2785 2786 2785 2786 2787 2788 2789 2790 2790 2792 2793 2795 2797 2798 2801 2803 2805 2807 2809 2811 2813 2816 2818 2821 2823 2826 2829 2832 2835 2838 2841 2845 2848 2852 2855 2859 2863 2867 2870 2874 2878 2883 2887 2892 2897 2901 2906 2910 2915
2809 2806 2804 2802 2799 2798 2796 2794 2793 2792 2791 2791 2791 2789 2786 2783 2782 2781 2780 2780 2780 2780 2780 2780 2780 2780 2781 2781 2781 2781 2781 2781 2781 2781 2781 2781 2782 2783 2784 2784 2784 2785 2786 2788 2788 2789 2790 2792 2793 2795 2797 2799 2801 2803 2805 2807 2809 2811 2814 2816 2819 2821 2824 2827 2829 2832 2835 2839 2842 2846 2849 2853 2857 2860 2864 2868 2872 2876 2880 2884 2889 2894 2898 2903 2907 2912
2808 2805 2803 2801 2799 2797 2795 2793 2793 2792 2790 2788 2786 2785 2783 2782 2781 2780 2779 2779 2779 2779 2778 2778 2778 2778 2779 2779 2779 2779 2779 2779 2779 2779 2780 2780 2780 2782 2783 2783 2783 2783 2785 2786 2787 2788 2789 2790 2792 2794 2795 2797 2799 2801 2803 2805 2807 2809 2812 2814 2817 2819 2822 2824 2827 2830 2833 2836 2839 2843 2847 2850 2854 2858 2862 2866 2869 2873 2878 2882 2886 2891 2895 2900 2904 2908
2806 2804 2802 2799 2798 2795 2793 2792 2790 2789 2787 2786 2784 2783 2782 2780 2779 2778 2778 2778 2778 2777 2777 2776 2777 2777 2778 2778 2778 2778 2778 2778 2778 2778 2778 2778 2779 2780 2781 2781 2781 2782 2783 2784 2785 2786 2788 2789 2791 2792 2793 2795 2797 2799 2801 2803 2805 2808 2810 2812 2814 2816 2818 2821 2824 2827 2830 2833 2837 2840 2844 2848 2852 2855 2859 2863 2867 2871 2875 2879 2884 2888 2893 2897 2901 2905
2805 2802 2800 2798 2796 2794 2792 2791 2789 2788 2787 2785 2783 2782 2781 2779 2778 2777 2777 2777 2776 2776 2775 2775 2775 2776 2776 2776 2776 2776 2777 2777 2777 2777 2777 2777 2777 2778 2780 2780 2780 2781 2782 2783 2784 2785 2787 2788 2789 2791 2792 2793 2795 2797 2799 2802 2804 2806 2808 2810 2812 2814 2816 2819 2822 2824 2828 2831 2834 2838 2841 2845 2849 2853 2857 2861 2865 2868 2873 2877 2881 2886 2890 2893 2898 2902
2803 2801 2798 2796 2794 2792 2791 2789 2788 2786 2785 2784 2782 2781 2779 2778 2777 2776 2776 2775 2775 2775 2774 2774 2774 2774 2774 2774 2775 2775 2776 2776 2776 2775 2775 2775 2776 2777 2778 2778 2779 2780 2781 2782 2783 2784 2786 2787 2788 2789 2791 2792 2794 2796 2798 2800 2802 2804 2806 2808 2810 2813 2815 2818 2821 2823 2826 2829 2833 2836 2839 2843 2847 2850 2854 2858 2862 2866 2870 2874 2878 2883 2886 2890 2894 2899
2802 2800 2797 2795 2793 2791 2789 2787 2786 2785 2783 2782 2781 2779 2778 2777 2776 2775 2774 2774 2774 2773 2773 2773 2773 2773 2773 2773 2773 2774 2775 2775 2774 2774 2774 2774 2775 2776 2777 2777 2778 2778 2780 2781 2782 2783 2784 2786 2787 2788 2789 2791 2793 2795 2797 2799 2801 2803 2805 2807 2809 2812 2814 2817 2819 2822 2825 2828 2831 2834 2838 2841 2844 2848 2852 2856 2860 2863 2868 2872 2876 2879 2883 2887 2891 2896
2800 2798 2796 2794 2792 2790 2788 2786 2784 2783 2782 2781 2779 2778 2777 2776 2775 2774 2773 2773 2773 2773 2772 2772 2772 2772 2772 2772 2772 2773 2774 2774 2773 2773 2773 2773 2774 2775 2775 2776 2777 2778 2778 2779 2781 2782 2783 2784 2786 2787 2788 2790 2792 2793 2795 2797 2799 2801 2803 2805 2808 2810 2813 2815 2818 2820 2823 2826 2829 2832 2836 2839 2843 2846 2850 2853 2857 2861 2865 2869 2872 2876 2880 2884 2889 2893
2799 2797 2795 2793 2791 2788 2787 2785 2783 2782 2781 2779 2778 2777 2776 2774 2773 2773 2772 2772 2772 2771 2771 2771 2771 2771 2771 2771 2771 2772 2773 2773 2773 2772 2772 2772 2773 2773 2774 2775 2776 2777 2778 2778 2780 2781 2783 2784 2785 2786 2787 2789 2790 2792 2794 2796 2798 2800 2802 2804 2806 2808 2811 2813 2815 2818 2821 2824 2827 2830 2833 2837 2840 2844 2848 2851 2855 2858 2862 2866 2869 2873 2877 2882 2887 2891
2798 2796 2794 2792 2790 2788 2786 2784 2782 2781 2780 2778 2777 2776 2775 2774 2773 2772 2771 2771 2770 2770 2770 2770 2769 2769 2769 2770 2770 2771 2771 2772 2771 2771 2770 2770 2771 2772 2773 2774 2775 2776 2777 2778 2779 2781 2782 2783 2784 2785 2786 2788 2789 2791 2793 2795 2797 2798 2801 2803 2804 2807 2809 2811 2813 2816 2819 2821 2824 2828 2831 2834 2838 2842 2845 2849 2853 2856 2860 2863 2867 2870 2875 2879 2884 2889
2798 2795 2793 2791 2789 2787 2785 2783 2781 2780 2779 2778 2777 2775 2774 2773 2772 2771 2770 2770 2769 2769 2768 2768 2768 2768 2768 2768 2769 2769 2770 2770 2770 2769 2769 2769 2770 2771 2772 2773 2774 2775 2776 2777 2778 2779 2781 2782 2783 2784 2785 2787 2788 2790 2791 2793 2795 2797 2799 2801 2803 2805 2807 2809 2812 2814 2817 2819 2822 2825 2828 2832 2835 2839 2843 2846 2850 2853 2857 2861 2864 2868 2873 2877 2882 2887
2797 2794 2792 2790 2788 2786 2784 2782 2780 2779 2778 2777 2776 2775 2774 2773 2772 2771 2770 2769 2768 2768 2768 2767 2767 2767 2767 2767 2767 2768 2769 2769 2768 2768 2768 2768 2769 2770 2771 2772 2773 2774 2775 2776 2777 2778 2780 2781 2782 2783 2784 2785 2787 2789 2790 2792 2793 2795 2798 2799 2801 2803 2805 2808 2810 2812 2815 2817 2820 2823 2826 2830 2833 2837 2840 2844 2848 2851 2855 2858 2862 2866 2871 2875 2880 2885
2796 2793 2791 2789 2787 2785 2783 2782 2780 2778 2777 2776 2775 2774 2773 2772 2771 2770 2769 2768 2768 2768 2767 2767 2766 2766 2766 2766 2766 2767 2768 2768 2768 2767 2767 2768 2768 2769 2771 2772 2772 2773 2774 2775 2776 2778 2779 2780 2781 2782 2783 2784 2786 2787 2789 2790 2792 2794 2796 2798 2800 2802 2804 2806 2808 2810 2813 2815 2818 2821 2824 2828 2831 2834 2838 2842 2846 2849 2853 2857 2860 2864 2869 2873 2878 2883
2795 2793 2791 2789 2787 2785 2783 2781 2779 2778 2776 2775 2774 2773 2772 2772 2771 2770 2769 2768 2768 2767 2767 2766 2766 2765 2765 2765 2765 2766 2766 2767 2767 2767 2767 2767 2768 2769 2770 2771 2772 2772 2773 2774 2775 2776 2778 2779 2780 2781 2783 2783 2785 2786 2787 2789 2791 2793 2795 2797 2798 2801 2803 2805 2807 2809 2811 2814 2816 2819 2822 2825 2829 2832 2836 2839 2843 2847 2850 2854 2858 2862 2866 2871 2876 2880
2795 2793 2790 2788 2786 2784 2782 2781 2779 2777 2776 2774 2773 2773 2772 2771 2770 2770 2769 2768 2768 2767 2766 2766 2765 2765 2765 2765 2765 2765 2766 2766 2766 2766 2766 2767 2768 2768 2769 2770 2771 2771 2772 2773 2774 2775 2777 2778 2779 2780 2781 2783 2784 2785 2786 2788 2790 2791 2793 2795 2797 2799 2801 2803 2805 2808 2810 2812 2815 2817 2820 2823 2827 2830 2834 2837 2841 2844 2848 2851 2855 2859 2863 2868 2873 2878
2794 2792 2790 2788 2786 2784 2782 2780 2778 2777 2775 2774 2773 2772 2771 2771 2770 2769 2769 2768 2768 2767 2766 2766 2765 2765 2765 2765 2765 2765 2765 2765 2765 2766 2766 2767 2767 2768 2768 2769 2769 2770 2771 2772 2773 2774 2775 2777 2778 2779 2780 2782 2783 2784 2785 2787 2788 2789 2791 2793 2795 2798 2799 2801 2803 2806 2808 2811 2813 2816 2819 2822 2825 2828 2832 2835 2838 2842 2845 2849 2853 2857 2861 2865 2870 2874
2794 2792 2790 2788 2786 2784 2782 2780 2778 2777 2775 2774 2773 2772 2771 2771 2770 2769 2769 2768 2768 2767 2766 2766 2765 2765 2765 2765 2765 2765 2765 2765 2765 2765 2766 2766 2767 2767 2768 2768 2768 2769 2770 2771 2772 2773 2774 2775 2777 2778 2780 2781 2782 2783 2784 2785 2787 2788 2790 2792 2794 2796 2798 2800 2802 2804 2806 2809 2812 2814 2817 2820 2823 2827 2830 2833 2836 2840 2843 2847 2850 2854 2858 2863 2867 2871
2794 2792 2790 2788 2786 2784 2782 2780 2779 2777 2775 2774 2773 2771 2771 2770 2770 2769 2769 2768 2767 2767 2766 2766 2765 2765 2765 2765 2765 2765 2765 2765 2765 2765 2765 2766 2766 2766 2767 2767 2768 2768 2769 2769 2770 2772 2773 2774 2776 2777 2778 2779 2781 2782 2783 2784 2785 2787 2789 2791 2792 2794 2796 2798 2800 2803 2805 2808 2810 2813 2815 2818 2821 2824 2828 2831 2834 2838 2841 2845 2848 2853 2856 2860 2864 2869
2794 2792 2790 2788 2786 2784 2782 2781 2779 2777 2775 2774 2772 2771 2770 2769 2769 2769 2768 2768 2767 2767 2766 2765 2765 2765 2765 2765 2765 2765 2765 2765 2765 2765 2765 2765 2765 2766 2766 2766 2767 2767 2768 2768 2769 2770 2772 2773 2774 2776 2777 2778 2779 2780 2782 2783 2784 2786 2787 2788 2790 2792 2794 2797 2799 2801 2803 2806 2808 2811 2814 2817 2820 2823 2826 2829 2833 2836 2839 2843 2847 2851 2855 2859 2863 2867
2794 2792 2790 2788 2786 2784 2782 2781 2779 2777 2776 2774 2772 2771 2770 2769 2768 2768 2768 2768 2767 2767 2766 2765 2765 2765 2765 2765 2765 2765 2765 2764 2764 2764 2764 2764 2764 2765 2765 2765 2766 2766 2767 2767 2768 2769 2770 2771 2773 2774 2775 2777 2778 2779 2780 2782 2783 2784 2786 2787 2789 2792 2794 2796 2798 2799 2802 2804 2807 2809 2812 2815 2818 2821 2824 2828 2831 2834 2838 2842 2845 2849 2853 2857 2862 2866
2794 2792 2790 2788 2786 2784 2782 2781 2779 2777 2776 2774 2773 2772 2770 2769 2768 2768 2768 2767 2767 2766 2766 2765 2765 2765 2765 2765 2765 2765 2764 2764 2764 2764 2764 2764 2764 2764 2764 2764 2765 2765 2765 2766 2767 2768 2769 2770 2771 2773 2774 2775 2776 2778 2779 2781 2782 2783 2784 2786 2788 2790 2792 2793 2795 2798 2800 2802 2805 2807 2810 2813 2815 2818 2822 2826 2829 2832 2836 2839 2843 2847 2850 2855 2860 2865
2795 2793 2790 2788 2786 2784 2782 2780 2779 2777 2775 2774 2773 2772 2771 2770 2769 2768 2767 2767 2767 2767 2766 2766 2766 2766 2766 2766 2766 2765 2765 2764 2764 2763 2763 2763 2763 2763 2763 2763 2764 2764 2764 2765 2766 2767 2768 2768 2770 2771 2772 2773 2774 2776 2778 2779 2780 2782 2783 2784 2786 2788 2789 2791 2793 2796 2798 2801 2803 2806 2808 2810 2813 2816 2819 2824 2828 2831 2833 2837 2840 2844 2848 2853 2858 2863
2795 2793 2791 2788 2786 2784 2782 2781 2779 2777 2776 2774 2773 2772 2771 2770 2769 2768 2768 2767 2767 2767 2766 2766 2766 2766 2766 2766 2766 2765 2765 2764 2764 2763 2763 2762 2762 2762 2762 2762 2763 2763 2763 2764 2764 2765 2766 2767 2768 2769 2770 2771 2773 2774 2776 2778 2779 2780 2782 2783 2784 2786 2788 2791 2793 2795 2797 2799 2802 2804 2806 2809 2812 2814 2818 2821 2825 2829 2831 2834 2838 2842 2846 2851 2856 2860
2795 2793 2791 2788 2786 2784 2783 2781 2779 2777 2776 2774 2773 2772 2771 2770 2769 2768 2768 2768 2767 2767 2767 2766 2766 2766 2766 2766 2765 2765 2764 2764 2763 2763 2762 2762 2761 2761 2761 2761 2761 2762 2762 2762 2763 2763 2764 2766 2767 2768 2769 2770 2771 2773 2775 2776 2778 2779 2780 2781 2783 2785 2787 2790 2792 2793 2795 2798 2800 2802 2805 2807 2810 2813 2816 2819 2823 2827 2829 2832 2836 2840 2845 2849 2854 2859
2796 2793 2791 2789 2787 2784 2783 2781 2779 2777 2776 2774 2773 2772 2771 2770 2769 2769 2768 2768 2768 2767 2767 2766 2766 2766 2765 2765 2764 2764 2763 2763 2762 2762 2761 2761 2760 2760 2760 2760 2760 2760 2760 2761 2761 2762 2763 2764 2765 2766 2767 2768 2769 2771 2773 2774 2776 2777 2778 2780 2781 2783 2785 2787 2789 2791 2793 2796 2798 2801 2803 2806 2808 2811 2813 2817 2821 2824 2828 2831 2834 2839 2843 2848 2853 2857
2796 2794 2791 2789 2787 2785 2783 2781 2779 2777 2776 2774 2773 2772 2771 2770 2769 2769 2768 2768 2768 2767 2766 2766 2765 2765 2764 2763 2763 2763 2762 2761 2761 2761 2760 2760 2759 2759 2758 2758 2758 2758 2758 2759 2760 2760 2761 2762 2763 2764 2765 2766 2768 2769 2771 2773 2774 2775 2777 2778 2779 2781 2783 2785 2787 2789 2791 2794 2797 2799 2801 2803 2805 2807 2811 2815 2818 2822 2826 2829 2833 2837 2842 2846 2851 2856
2797 2794 2792 2790 2788 2785 2783 2781 2779 2777 2776 2774 2773 2772 2771 2770 2769 2769 2768 2768 2768 2767 2766 2765 2764 2764 2763 2762 2761 2760 2760 2759 2759 2759 2758 2758 2758 2757 2757 2757 2757 2757 2757 2757 2758 2758 2759 2760 2761 2762 2763 2764 2766 2768 2769 2771 2772 2773 2775 2776 2778 2779 2781 2783 2786 2788 2790 2792 2794 2797 2798 2800 2803 2806 2809 2813 2816 2820 2824 2828 2831 2835 2839 2844 2849 2855
2797 2795 2793 2790 2788 2786 2784 2782 2779 2778 2776 2774 2773 2772 2771 2770 2769 2768 2768 2768 2767 2766 2766 2765 2764 2763 2762 2761 2760 2759 2758 2758 2757 2757 2757 2757 2756 2756 2756 2755 2755 2755 2755 2756 2756 2756 2757 2758 2758 2759 2761 2762 2764 2765 2767 2768 2770 2771 2772 2774 2775 2777 2779 2782 2784 2786 2788 2790 2792 2794 2796 2798 2801 2805 2808 2812 2815 2818 2821 2826 2830 2833 2838 2843 2848 2853